FENGYUN 1C DEB

Satellite information

Favourite Embed

Satellite Type and Status

DEBRISIN ORBIT

Key statistics

Satellite FENGYUN 1C DEB at a glance.

Uptime

9715

Days in orbit

Revolutions

≈ 14.2

Per day

Orbit

SSO

Sun Synchronous Orbit

Inclination

99.2

Latest

Satellite identification and parameters

Extended collection of information and parameters for FENGYUN 1C DEB.

Object identification

Identified? True

Debris? True

Object name: FENGYUN 1C DEB

International designator: 1999-025APL

Object number (NORAD): 30654

Object ID (CCSDS): 30654

Country: PEOPLES REPUBLIC OF CHINA (PRC)

Current information (Y/N): Y

RCS size: SMALL

Orbital parameters

Period: 101.617 minutes

Inclination: 99.2405 deg

SMA: 7213.343 km

Apoapsis: 860.611 km

Periapsis: 809.804 km

RAAN: 268.9582 deg

Eccentricy: 0.00352172

Argument of periapsis: 99.3864 deg

Mean anomaly: 261.1294 deg

Mean motion: 14.17091606 rev/day

Mean motion (dot): 0.00003279 rev/day2

B* drag term: 0.0016419196 1/REarth

Two-line elements (TLE)

Creation date: Dec. 12, 2025, 3:16 a.m.

Reference frame: TEME

Reference center: EARTH

Epoch: Dec. 11, 2025, 6:09 p.m. UTC

TLE line 0: 0 FENGYUN 1C DEB

TLE line 1: 1 30654U 99025APL 25345.75684915 .00003279 00000-0 16419-2 0 9991

TLE line 2: 2 30654 99.2405 268.9582 0035217 99.3864 261.1294 14.17091606966669

Live tracking on map

Real-time ground track for satellite FENGYUN 1C DEB.

In-orbit conjunctions

A list of the most updated potential collisions computed for object FENGYUN 1C DEB.

Target Orbit TCA Probability of collision Miss distance Type
NOAA 16 SSO 2025-12-01 11:58:36 0.0008486772 329.0 (m) PAYLOAD
SL-14 DEB * LEO 2025-05-05 17:18:52 0.0001170143 81.0 (m) DEBRIS
TIROS N SSO 2024-09-24 11:37:45 0.0005396457 331.0 (m) PAYLOAD
CZ-6A DEB SSO 2024-06-05 18:21:16 0.0001012173 75.0 (m) DEBRIS

Associated space launch

Chinese polar orbiting meteorological satellite

FENGYUN 1C DEB was lifted into orbit during the mission ‘Long March 4B | Feng Yun 1C’, on board a Long March 4B space rocket.

The launch took place on May 10, 1999, 1:33 a.m. from Launch Complex 7.

For more information about the launch, click the button.

Launch to space Long March 4B | Feng Yun 1C
Long March 4B | Feng Yun 1C

Agency: N/A

Status: Launch Successful

Launch date: May 10, 1999, 1:33 a.m. UTC

Rocket: Long March 4B

Launch pad: Launch Complex 7

Location: Taiyuan Satellite Launch Center, People's Republic of China

...

Latest news about this satellite

There are no fresh news available about this satellite. Check back as we update our databases every day.


Newsletter sign-up

Weekly statistics, charts and insights to help you stay on top of the space industry.